Location: Emory University Observatory
(33.7903°N, 84.3267°W)
Time: 08:40:22
(UTC-04:00)

Vanguard 2 Rocket - All Passes

Search period start: 20 October 2017 00:00
Search period end: 30 October 2017 00:00
Orbit: 555 x 3327 km, 32.9° (Epoch: 18 October)

Date Brightness Start Highest point End Pass type
(mag) Time Alt. Az. Time Alt. Az. Time Alt. Az.
20 Oct - 11:36:21 10° S 11:39:30 19° SE 11:43:29 10° E daylight
20 Oct - 13:46:28 10° WSW 13:51:45 70° SSE 14:00:57 10° E daylight
20 Oct - 15:58:29 10° W 16:05:55 84° S 16:19:41 10° E daylight
20 Oct - 18:11:15 10° W 18:21:27 60° SSW 18:38:39 10° SE daylight
20 Oct - 20:26:11 10° W 20:38:01 32° SSW 20:53:53 10° SSE visible
21 Oct - 12:48:05 10° SW 12:52:35 51° SSE 12:59:43 10° E daylight
21 Oct - 14:59:45 10° W 15:06:00 85° S 15:17:28 10° E daylight
21 Oct - 17:12:07 10° W 17:20:52 69° SSW 17:36:32 10° ESE daylight
21 Oct - 19:25:52 10° W 19:36:55 39° SSW 19:53:21 10° SSE visible
21 Oct - 21:45:41 10° WSW 21:53:42 15° SW 22:02:47 10° S visible
22 Oct - 11:49:56 10° SW 11:53:43 31° SSE 11:58:52 10° E daylight
22 Oct - 14:01:07 10° W 14:06:25 81° S 14:15:42 10° E daylight
22 Oct - 16:13:14 10° W 16:20:38 76° SSW 16:34:17 10° ESE daylight
22 Oct - 18:26:12 10° W 18:36:04 47° SSW 18:52:08 10° SE daylight
22 Oct - 20:42:41 10° WSW 20:52:33 21° SW 21:04:58 10° S visible
23 Oct - 10:52:14 10° S 10:54:58 17° SE 10:58:05 10° ESE daylight
23 Oct - 13:02:35 10° WSW 13:07:09 69° SSE 13:14:29 10° E daylight
23 Oct - 15:14:30 10° W 15:20:45 82° S 15:32:10 10° E daylight
23 Oct - 17:26:58 10° W 17:35:32 55° SSW 17:50:28 10° SE daylight
23 Oct - 19:41:35 10° W 19:51:32 28° SSW 20:05:25 10° SSE visible
24 Oct - 12:04:07 10° SW 12:08:08 49° SSE 12:13:48 10° E daylight
24 Oct - 14:15:52 10° W 14:21:10 85° S 14:30:26 10° E daylight
24 Oct - 16:28:01 10° W 16:35:20 63° SSW 16:48:36 10° ESE daylight
24 Oct - 18:41:29 10° W 18:50:44 34° SSW 19:04:56 10° SSE daylight
24 Oct - 21:02:08 10° SW 21:07:16 12° SW 21:13:00 10° SSW visible
25 Oct - 11:05:48 10° SW 11:09:17 30° SSE 11:13:30 10° E daylight
25 Oct - 13:17:16 10° W 13:21:50 81° S 13:29:14 10° E daylight
25 Oct - 15:29:15 10° W 15:35:29 72° SSW 15:46:44 10° ESE daylight
25 Oct - 17:42:00 10° W 17:50:13 41° SSW 18:03:52 10° SE daylight
25 Oct - 19:58:34 10° WSW 20:06:16 18° SSW 20:15:59 10° S visible
26 Oct - 10:07:46 10° SSW 10:10:29 18° SSE 10:13:18 10° ESE daylight
26 Oct - 12:18:39 10° WSW 12:22:44 68° SSE 12:28:35 10° E daylight
26 Oct - 14:30:37 10° W 14:35:54 79° S 14:45:09 10° ESE daylight
26 Oct - 16:42:54 10° W 16:50:02 48° SSW 17:02:29 10° SE daylight
26 Oct - 18:57:29 10° WSW 19:05:29 23° SSW 19:16:42 10° SSE visible
27 Oct - 11:20:02 10° WSW 11:23:48 48° SSE 11:28:27 10° E daylight
27 Oct - 13:32:00 10° W 13:36:35 83° S 13:43:59 10° E daylight
27 Oct - 15:44:04 10° W 15:50:11 57° SSW 16:01:01 10° ESE daylight
27 Oct - 17:57:27 10° W 18:04:59 28° SSW 18:16:28 10° SSE daylight
28 Oct - 10:21:24 10° SW 10:24:58 31° SSE 10:28:40 10° E daylight
28 Oct - 12:33:20 10° W 12:37:27 80° S 12:43:20 10° E daylight
28 Oct - 14:45:23 10° W 14:50:38 66° SSW 14:59:41 10° ESE daylight
28 Oct - 16:58:02 10° W 17:04:48 34° SSW 17:15:46 10° SE daylight
28 Oct - 19:15:25 10° SW 19:20:21 13° SSW 19:26:17 10° S visible
29 Oct - 09:22:51 10° SSW 09:26:04 20° SSE 09:29:02 10° ESE daylight
29 Oct - 11:34:34 10° WSW 11:38:27 68° S 11:43:14 10° E daylight
29 Oct - 13:46:46 10° W 13:51:20 75° S 13:58:40 10° ESE daylight
29 Oct - 15:59:01 10° W 16:04:55 41° SSW 16:14:50 10° SE daylight
29 Oct - 18:13:54 10° WSW 18:19:51 18° SSW 18:27:48 10° S daylight
